When you browse on this site, cookies collect data to enhance your experience and personalize the content and advertising you see.
Visit our Privacy Policy to learn more. By continuing to use the site, you agree to this use of cookies and data.
  • In Lithuania
  • List of Countries
  • For 7 days
  • Water Temperature
  • Weather Map
  • Weather Widgets
  • user-avatar
    Login

    Hourly Weather Biatris

    Today, 30 March, Monday

    Time Temperature Precipitation Wind Pressure Humidity
    00:00 +17°C° 0 mm 2 mps 653 mmHg 75%
    01:00 +16°C° 0 mm 2 mps 653 mmHg 80%
    02:00 +16°C° 0 mm 1 mps 652 mmHg 86%
    03:00 +16°C° 0 mm 1 mps 652 mmHg 89%
    04:00 +15°C° 0 mm 1 mps 652 mmHg 92%
    05:00 +15°C° 0 mm 1 mps 652 mmHg 95%
    06:00 +18°C° 0 mm 1 mps 653 mmHg 87%
    07:00 +20°C° 0 mm 1 mps 654 mmHg 79%
    08:00 +22°C° 0 mm 1 mps 655 mmHg 71%
    09:00 +24°C° 0 mm 1 mps 655 mmHg 59%
    10:00 +27°C° 0 mm 1 mps 656 mmHg 48%
    11:00 +29°C° 0 mm 1 mps 656 mmHg 37%
    12:00 +30°C° 0 mm 1 mps 656 mmHg 34%
    13:00 +31°C° 0 mm 1 mps 655 mmHg 31%
    14:00 +32°C° 0 mm 1 mps 655 mmHg 27%
    15:00 +31°C° 0 mm 1 mps 654 mmHg 30%
    16:00 +30°C° 0 mm 2 mps 653 mmHg 33%
    17:00 +28°C° 0 mm 2 mps 653 mmHg 35%
    18:00 +26°C° 0 mm 2 mps 653 mmHg 40%
    19:00 +23°C° 0 mm 2 mps 652 mmHg 46%
    20:00 +20°C° 0 mm 2 mps 652 mmHg 51%
    21:00 +19°C° 0 mm 2 mps 653 mmHg 56%
    22:00 +18°C° 0 mm 2 mps 653 mmHg 61%
    23:00 +18°C° 0 mm 2 mps 653 mmHg 67%

    Tomorrow, 31 March, Tuesday

    Time Temperature Precipitation Wind Pressure Humidity
    00:00 +17°C° 0 mm 2 mps 653 mmHg 72%
    01:00 +17°C° 0 mm 2 mps 653 mmHg 77%
    02:00 +17°C° 0 mm 2 mps 652 mmHg 82%
    03:00 +16°C° 0 mm 2 mps 652 mmHg 86%
    04:00 +16°C° 0 mm 2 mps 652 mmHg 90%
    05:00 +15°C° 0 mm 1 mps 652 mmHg 94%
    06:00 +18°C° 0 mm 1 mps 653 mmHg 87%
    07:00 +19°C° 0 mm 1 mps 654 mmHg 79%
    08:00 +20°C° 0 mm 2 mps 654 mmHg 72%
    09:00 +24°C° 0 mm 1 mps 655 mmHg 61%
    10:00 +28°C° 0 mm 1 mps 656 mmHg 50%
    11:00 +31°C° 0 mm 1 mps 656 mmHg 39%
    12:00 +32°C° 0 mm 1 mps 656 mmHg 36%
    13:00 +33°C° 0 mm 1 mps 655 mmHg 32%
    14:00 +33°C° 0 mm 1 mps 655 mmHg 29%
    15:00 +32°C° 0 mm 1 mps 654 mmHg 32%
    16:00 +29°C° 0 mm 0 mps 653 mmHg 35%
    17:00 +28°C° 0 mm 0 mps 653 mmHg 38%
    18:00 +27°C° 0 mm 1 mps 653 mmHg 44%
    19:00 +24°C° 0 mm 1 mps 653 mmHg 51%
    20:00 +21°C° 0 mm 2 mps 653 mmHg 57%
    21:00 +20°C° 0 mm 2 mps 653 mmHg 60%
    22:00 +19°C° 0 mm 2 mps 653 mmHg 64%
    23:00 +19°C° 0 mm 2 mps 653 mmHg 67%

    Day after tomorrow, 1 April, Wednesday

    Time Temperature Precipitation Wind Pressure Humidity
    00:00 +18°C° 0 mm 2 mps 653 mmHg 71%
    01:00 +18°C° 0 mm 2 mps 653 mmHg 75%
    02:00 +17°C° 0 mm 2 mps 652 mmHg 79%
    03:00 +17°C° 0 mm 2 mps 652 mmHg 82%
    04:00 +16°C° 0 mm 2 mps 652 mmHg 85%
    05:00 +16°C° 0 mm 2 mps 652 mmHg 88%
    06:00 +17°C° 0 mm 2 mps 653 mmHg 80%
    07:00 +19°C° 0 mm 2 mps 654 mmHg 73%
    08:00 +21°C° 0 mm 2 mps 655 mmHg 65%
    09:00 +25°C° 0 mm 1 mps 655 mmHg 55%
    10:00 +29°C° 0 mm 1 mps 656 mmHg 46%
    11:00 +31°C° 0 mm 0 mps 657 mmHg 36%
    12:00 +31°C° 0 mm 0 mps 656 mmHg 32%
    13:00 +34°C° 0 mm 1 mps 656 mmHg 29%
    14:00 +34°C° 0 mm 1 mps 655 mmHg 25%
    15:00 +33°C° 0 mm 1 mps 654 mmHg 28%
    16:00 +32°C° 0 mm 2 mps 654 mmHg 30%
    17:00 +30°C° 0 mm 3 mps 653 mmHg 33%
    18:00 +28°C° 0 mm 3 mps 653 mmHg 36%
    19:00 +26°C° 0 mm 3 mps 653 mmHg 40%
    20:00 +22°C° 0 mm 4 mps 653 mmHg 44%
    21:00 +21°C° 0 mm 3 mps 654 mmHg 49%
    22:00 +20°C° 0 mm 3 mps 654 mmHg 55%
    23:00 +19°C° 0 mm 2 mps 654 mmHg 60%

    2 April, Thursday

    Time Temperature Precipitation Wind Pressure Humidity
    00:00 +18°C° 0 mm 2 mps 653 mmHg 65%
    01:00 +17°C° 0 mm 2 mps 653 mmHg 70%
    02:00 +17°C° 0 mm 2 mps 653 mmHg 74%
    03:00 +16°C° 0 mm 2 mps 653 mmHg 76%
    04:00 +16°C° 0 mm 2 mps 653 mmHg 78%
    05:00 +15°C° 0 mm 2 mps 653 mmHg 80%
    06:00 +16°C° 0 mm 3 mps 654 mmHg 78%
    07:00 +18°C° 0 mm 4 mps 654 mmHg 75%
    08:00 +19°C° 0 mm 5 mps 655 mmHg 72%
    09:00 +21°C° 0 mm 5 mps 655 mmHg 64%
    10:00 +23°C° 0 mm 4 mps 656 mmHg 55%
    11:00 +26°C° 0 mm 4 mps 656 mmHg 47%
    12:00 +27°C° 0 mm 4 mps 655 mmHg 42%
    13:00 +28°C° 0 mm 4 mps 655 mmHg 37%
    14:00 +29°C° 0 mm 4 mps 655 mmHg 32%
    15:00 +28°C° 0 mm 4 mps 654 mmHg 35%
    16:00 +27°C° 0 mm 4 mps 654 mmHg 38%
    17:00 +26°C° 0 mm 4 mps 653 mmHg 40%
    18:00 +23°C° 0 mm 4 mps 653 mmHg 45%
    19:00 +21°C° 0 mm 4 mps 653 mmHg 50%
    20:00 +19°C° 0 mm 4 mps 654 mmHg 55%
    21:00 +19°C° 0 mm 4 mps 654 mmHg 61%
    22:00 +18°C° 0 mm 4 mps 654 mmHg 68%
    23:00 +17°C° 0 mm 4 mps 654 mmHg 75%

    3 April, Friday

    Time Temperature Precipitation Wind Pressure Humidity
    00:00 +15°C° 0 mm 4 mps 654 mmHg 80%
    01:00 +16°C° 0 mm 3 mps 654 mmHg 86%
    02:00 +14°C° 0 mm 3 mps 653 mmHg 91%
    03:00 +16°C° 0 mm 3 mps 654 mmHg 87%
    04:00 +17°C° 0 mm 4 mps 654 mmHg 82%
    05:00 +18°C° 0 mm 4 mps 654 mmHg 78%
    06:00 +18°C° 0 mm 4 mps 655 mmHg 75%
    07:00 +19°C° 0 mm 5 mps 655 mmHg 72%
    08:00 +20°C° 0 mm 5 mps 656 mmHg 70%
    09:00 +21°C° 0 mm 5 mps 656 mmHg 65%
    10:00 +22°C° 0 mm 4 mps 656 mmHg 61%
    11:00 +23°C° 0 mm 4 mps 656 mmHg 57%
    12:00 +25°C° 0 mm 4 mps 656 mmHg 53%
    13:00 +26°C° 0 mm 4 mps 656 mmHg 50%
    14:00 +27°C° 0 mm 4 mps 655 mmHg 46%
    15:00 +26°C° 0 mm 4 mps 655 mmHg 50%
    16:00 +25°C° 0 mm 4 mps 655 mmHg 54%
    17:00 +22°C° 0 mm 4 mps 654 mmHg 58%
    18:00 +21°C° 0 mm 4 mps 654 mmHg 65%
    19:00 +19°C° 0 mm 4 mps 654 mmHg 72%
    20:00 +17°C° 0 mm 3 mps 654 mmHg 80%
    21:00 +17°C° 0 mm 3 mps 654 mmHg 82%
    22:00 +16°C° 0 mm 3 mps 654 mmHg 84%
    23:00 +16°C° 0 mm 3 mps 654 mmHg 87%

    4 April, Saturday

    Time Temperature Precipitation Wind Pressure Humidity
    00:00 +14°C° 0 mm 3 mps 654 mmHg 87%
    01:00 +14°C° 0 mm 3 mps 653 mmHg 87%
    02:00 +14°C° 0 mm 3 mps 653 mmHg 87%
    03:00 +14°C° 0 mm 3 mps 653 mmHg 88%
    04:00 +13°C° 0 mm 3 mps 653 mmHg 89%
    05:00 +14°C° 0 mm 2 mps 653 mmHg 90%
    06:00 +14°C° 0 mm 3 mps 654 mmHg 83%
    07:00 +17°C° 0 mm 3 mps 654 mmHg 77%
    08:00 +18°C° 0 mm 4 mps 655 mmHg 70%
    09:00 +21°C° 0 mm 3 mps 655 mmHg 61%
    10:00 +24°C° 0 mm 3 mps 656 mmHg 53%
    11:00 +27°C° 0 mm 2 mps 656 mmHg 44%
    12:00 +28°C° 0 mm 2 mps 656 mmHg 41%
    13:00 +29°C° 0 mm 2 mps 655 mmHg 38%
    14:00 +30°C° 0 mm 2 mps 655 mmHg 35%
    15:00 +28°C° 0 mm 2 mps 654 mmHg 39%
    16:00 +27°C° 0 mm 2 mps 654 mmHg 43%
    17:00 +25°C° 0 mm 2 mps 654 mmHg 47%
    18:00 +24°C° 0.1 mm 2 mps 654 mmHg 52%
    19:00 +21°C° 0.1 mm 2 mps 654 mmHg 57%
    20:00 +19°C° 0.1 mm 2 mps 654 mmHg 61%
    21:00 +18°C° 0 mm 2 mps 653 mmHg 62%
    22:00 +17°C° 0 mm 2 mps 653 mmHg 62%
    23:00 +16°C° 0 mm 2 mps 653 mmHg 62%
    Show more